Regional Weather Roundup
Issued by NWS

Home | Current Version | Previous Version | Graphics & Text | Print | Product List | Glossary On
Versions: 1 2 3 4 5 6 7 8 9 10 11 12 13 14 15 16 17 18 19 20 21 22 23 24 25 26 27 28 29 30 31 32 33 34 35 36 37 38 39 40 41 42 43 44 45 46 47 48 49 50
069
ASUS43 KOAX 251302
RWRNE

WEATHER ROUNDUP FOR NEBRASKA
NATIONAL WEATHER SERVICE OMAHA NE
800 AM CDT TUE JUL 25 2017

NOTES: SATELLITE DATA IS BEING USED TO AUGMENT CLOUD COVER ABOVE
       12000 FEET.
       "FAIR" INDICATES FEW OR NO CLOUDS BELOW 12,000 FEET WITH NO
       SIGNIFICANT WEATHER AND/OR OBSTRUCTIONS TO VISIBILITY.


NEZ001>004-019>022-054>056-251400-
NEBRASKA PANHANDLE

CITY           SKY/WX    TMP DP  RH WIND       PRES   REMARKS
SCOTTSBLUFF    MOSUNNY   72  58  61 CALM      29.96R
ALLIANCE       MOSUNNY   74  61  63 SE10      29.96R
CHADRON        PTSUNNY   71  55  56 CALM      29.89R
GORDON         FAIR      73  63  70 CALM      29.92S
SIDNEY         MOSUNNY   71  61  70 SW10      30.02R
$$

NEZ057>060-069>072-079>082-251400-
SOUTHWEST NEBRASKA

CITY           SKY/WX    TMP DP  RH WIND       PRES   REMARKS
NORTH PLATTE   MOSUNNY   76  62  62 SE10      29.98R
IMPERIAL       MOSUNNY   75  63  66 S12       29.99R
LEXINGTON      SUNNY     74  64  69 S6        29.99S
MCCOOK         SUNNY     75  65  70 S9        29.99R
OGALLALA       SUNNY     72  64  75 CALM      29.99R
$$

NEZ005>010-023>029-035>040-094-251400-
NORTH CENTRAL NEBRASKA

CITY           SKY/WX    TMP DP  RH WIND       PRES   REMARKS
VALENTINE      SUNNY     79  58  48 SW9       29.90R
AINSWORTH      SUNNY     77  59  52 S15       29.92R
BROKEN BOW     SUNNY     75  61  61 S6        29.98S
O`NEILL        SUNNY     77  64  64 S13G18    29.92S
ORD            SUNNY     76  61  59 S8        29.96R
THEDFORD       MOSUNNY   79  62  55 S16       29.96S
$$

NEZ041-046>049-061>064-073>077-083>087-251400-
SOUTH CENTRAL NEBRASKA

CITY           SKY/WX    TMP DP  RH WIND       PRES   REMARKS
GRAND ISLAND   SUNNY     77  67  71 S13       30.00R
AURORA         SUNNY     74  69  84 S8        30.00S
HASTINGS       SUNNY     73  65  75 S8        30.02S
HEBRON         SUNNY     75  70  84 S7        30.03R
HOLDREGE       SUNNY     73  63  70 S8        30.01S
KEARNEY        SUNNY     74  65  73 S8        30.01S
YORK           SUNNY     73  72  94 S5        30.01S
$$

NEZ011>018-030>034-042>045-251400-
NORTHEAST NEBRASKA

CITY           SKY/WX    TMP DP  RH WIND       PRES   REMARKS
NORFOLK        SUNNY     76  68  76 S13       29.96R
ALBION         SUNNY     76  68  76 S7        29.98R
BLAIR          SUNNY     74  67  79 S16       30.01R
COLUMBUS       SUNNY     77  70  79 S12       29.98S
FREMONT        SUNNY     74  67  80 SE7       30.01R
TEKAMAH        SUNNY     75  67  76 S12       30.00R
WAYNE          SUNNY     73  73  99 S8        29.96S
$$

NEZ050>053-065>068-078-088>093-251400-
SOUTHEAST NEBRASKA

CITY           SKY/WX    TMP DP  RH WIND       PRES   REMARKS
LINCOLN        SUNNY     74  70  87 S12       30.01S
OMAHA EPPLEY   SUNNY     76  66  71 S17       30.02R
BEATRICE       SUNNY     75  70  85 S9        30.02S
FALLS CITY     SUNNY     72  68  87 S9        30.04R
NEBRASKA CITY  SUNNY     73  71  93 S15       30.03R
PLATTSMOUTH    SUNNY     73  67  79 SE10G16   30.02R
$$

NEZ044-045-051>053-067-251400-
OMAHA AREA

CITY           SKY/WX    TMP DP  RH WIND       PRES   REMARKS
OMAHA EPPLEY   SUNNY     76  66  71 S17       30.02R
BLAIR          SUNNY     74  67  79 S16       30.01R
FREMONT        SUNNY     74  67  80 SE7       30.01R
MILLARD        SUNNY     77  69  78 SE12      30.02R
OFFUTT AFB     SUNNY     74  66  75 SE10      30.02R
PLATTSMOUTH    SUNNY     73  67  79 SE10G16   30.02R
WAHOO          FAIR      73  69  89 S8        30.00S
$$




USA.gov is the U.S. government's official web portal to all federal, state and local government web resources and services.